Wind_Speed
106 103 100 98 94 92 90 87 85 83 79 75 74 72 70 68 64 65 64 61 59 58 55 54 54 54 53 56 57 59 58 56 57 55 51 53 54 59 60 59 59 63 65 64 62 65 66
110 107 104 102 99 95 92 92 91 87 84 82 78 76 75 74 74 70 67 68 67 63 61 60 60 61 60 61 62 61 60 60 60 59 59 63 65 64 65 65 64 63 64 66 68 70 71
107 107 107 106 105 99 96 96 92 90 91 90 86 82 80 76 75 71 70 69 72 69 65 67 61 62 65 62 62 64 64 63 61 60 63 62 66 66 64 65 64 64 71 74 76 76 80
118 106 107 111 108 105 100 97 95 94 91 92 90 88 84 81 78 78 78 75 74 72 72 71 70 68 69 66 66 68 67 68 66 64 67 67 69 69 69 70 72 75 77 82 84 84 83
122 120 113 106 110 109 107 104 101 99 96 92 91 90 88 88 84 84 82 82 80 81 76 75 73 72 73 73 71 72 73 74 74 74 74 75 78 77 76 78 80 80 83 85 88 87 82
111 125 122 123 110 104 104 105 107 104 100 99 99 98 95 92 90 89 86 88 86 79 77 76 75 78 78 74 74 77 77 80 79 80 81 79 81 83 82 82 84 86 86 86 85 75 65
94 106 119 119 119 111 105 104 104 106 106 105 103 101 98 96 95 94 90 90 89 84 80 81 82 82 83 76 78 82 80 85 83 85 86 81 84 86 85 82 83 84 80 82 69 69 67
98 93 99 99 106 115 115 104 106 104 102 105 106 105 103 99 96 96 94 94 91 86 85 85 85 85 88 84 82 87 83 87 87 89 89 88 94 90 89 81 78 73 70 70 74 77 84
102 98 99 96 96 103 102 110 109 107 107 106 101 102 101 101 99 99 99 95 93 89 87 92 87 87 89 88 90 90 87 88 90 93 92 92 93 89 82 77 74 70 68 72 76 86 78
106 103 102 99 96 95 93 98 95 94 93 99 104 108 104 101 99 100 96 94 92 91 88 94 90 88 89 92 91 91 92 92 94 95 93 93 92 83 76 71 71 75 81 85 80 78 76
105 105 104 104 98 94 94 94 90 87 87 90 90 94 99 103 108 99 101 97 96 95 93 91 89 90 92 93 96 96 93 95 93 88 85 82 77 74 71 73 74 84 90 89 75 77 74
116 109 103 106 101 96 91 93 89 90 87 88 87 87 87 93 91 93 91 88 80 77 79 79 85 84 85 84 84 84 81 77 80 75 73 74 71 75 80 84 88 89 78 74 72 74 61
120 119 113 107 103 103 97 87 88 89 88 88 84 83 79 80 79 85 89 90 82 82 78 78 77 71 70 70 69 69 72 73 74 76 79 79 80 83 86 86 75 71 65 67 69 63 58
123 119 123 117 111 105 103 102 86 85 86 88 84 84 82 83 81 77 79 76 77 77 76 70 71 66 68 67 70 76 80 81 81 82 82 77 77 75 74 70 62 62 63 69 63 57 56
127 125 115 121 116 115 111 109 102 100 89 83 81 81 84 82 82 80 78 76 74 75 73 71 72 75 75 76 77 79 81 82 77 76 78 76 72 67 64 62 60 61 70 62 58 57 56
130 125 121 112 113 115 110 112 108 108 95 94 86 81 78 76 77 76 76 75 75 78 73 72 73 77 79 76 76 78 79 69 68 71 69 66 64 61 56 56 63 61 65 55 51 52 55
129 129 124 116 115 111 117 107 105 103 102 91 88 83 80 78 79 72 66 72 76 73 69 68 67 71 65 60 63 65 62 60 61 64 66 62 58 56 60 61 62 55 59 56 54 48 51
129 129 128 122 118 115 109 106 103 105 96 92 89 86 82 80 77 74 71 72 74 69 65 64 61 63 63 56 56 52 51 51 51 56 57 60 58 61 56 53 51 54 56 57 53 48 47
136 129 123 123 118 116 113 111 106 102 99 96 93 92 87 85 73 68 70 71 67 67 64 64 64 63 61 56 51 51 49 46 50 53 52 54 55 59 55 50 50 50 57 55 51 49 47
133 133 126 121 122 120 118 113 108 108 105 103 98 93 89 82 77 76 75 78 76 74 71 68 66 63 61 59 55 50 52 49 48 47 52 54 50 52 53 55 50 54 56 55 51 45 41
136 135 136 127 120 116 117 117 113 114 113 109 103 99 91 86 81 79 77 80 77 76 75 72 70 69 66 62 62 57 55 51 50 52 52 55 54 54 52 57 58 58 56 56 46 46 39
134 137 133 128 126 120 120 118 115 117 116 113 110 104 97 92 90 86 83 78 76 79 77 75 75 74 70 68 65 66 62 59 53 54 54 52 53 52 55 56 58 54 57 46 44 39 39
128 129 131 128 127 124 120 121 121 120 121 118 117 113 104 101 97 94 88 83 83 82 78 77 80 79 75 73 70 69 66 63 58 58 57 57 53 53 57 55 56 55 54 50 42 44 45
125 124 127 129 129 129 125 125 118 116 119 119 118 113 108 104 99 97 95 91 89 86 82 77 75 75 76 74 73 70 68 65 65 60 59 60 55 55 58 58 55 59 62 51 46 47 46
123 125 125 128 131 129 128 124 120 116 118 121 120 115 111 110 106 104 99 94 95 90 84 83 79 77 79 76 74 73 69 69 67 66 61 62 60 58 58 57 55 61 56 56 54 49 50
124 125 127 128 131 130 130 127 125 124 123 123 120 119 112 113 113 109 105 100 99 93 93 89 87 84 84 80 76 74 73 70 70 67 64 62 61 60 57 60 56 58 61 55 54 55 59
123 125 129 130 126 127 130 131 128 128 126 123 119 115 114 115 115 113 111 106 104 102 96 94 90 86 84 83 80 74 72 72 71 68 70 67 64 64 58 60 55 60 57 57 56 58 58
114 120 123 124 124 126 128 130 133 131 129 127 122 120 117 117 115 113 113 111 109 106 105 98 94 91 90 86 80 78 76 72 72 71 68 69 69 66 65 59 55 64 62 58 57 60 62
103 110 115 117 120 123 125 128 130 131 132 130 126 123 120 121 119 116 112 111 109 109 109 105 100 97 96 93 88 86 81 77 76 71 70 68 68 69 66 63 64 65 65 66 65 64 64
Wind_Direction
239 240 240 242 242 243 244 245 247 248 248 248 249 250 252 255 260 262 263 264 265 269 270 270 272 276 280 284 282 284 288 289 286 284 283 287 290 293 298 298 301 303 307 308 310 311 312
238 240 240 242 241 242 243 244 245 246 248 248 250 252 253 254 256 259 262 265 267 268 271 272 274 275 274 279 284 285 285 288 292 291 288 288 288 292 296 296 300 304 305 306 307 308 312
237 239 239 241 241 241 243 243 244 245 246 249 249 251 251 251 257 256 259 264 266 266 269 272 274 279 281 280 281 285 286 287 286 289 290 290 291 293 295 296 298 302 302 304 305 307 308
231 234 238 239 240 241 242 243 245 246 245 247 247 248 250 251 253 255 259 263 264 267 269 272 271 278 279 281 282 283 287 285 286 286 288 291 293 293 293 295 295 298 300 303 304 305 306
232 233 233 237 240 241 242 243 245 244 245 247 246 247 250 251 251 254 258 261 264 266 266 267 272 274 276 277 280 280 282 285 286 288 289 292 292 291 292 295 297 299 302 302 303 305 304
232 233 234 234 235 238 242 243 243 243 245 248 248 249 250 251 253 254 258 261 263 265 266 266 270 272 273 274 276 279 280 282 283 284 287 289 291 292 295 296 297 298 300 301 303 303 303
229 232 233 235 236 234 236 237 242 242 243 245 247 247 247 249 250 252 255 259 260 261 261 264 268 269 273 272 277 277 279 282 282 283 284 287 289 291 294 296 297 298 302 301 299 297 298
228 231 232 232 236 237 238 237 237 240 244 244 245 245 246 247 250 252 254 255 256 257 261 263 265 269 270 272 273 273 280 281 283 286 288 292 292 294 296 298 298 300 301 300 299 299 306
227 231 234 232 234 234 237 239 240 240 241 242 243 245 245 248 251 252 253 254 255 256 258 262 266 268 267 269 272 273 277 279 282 285 288 290 291 296 296 298 298 299 298 296 295 307 308
226 231 232 234 233 235 236 237 239 242 243 244 245 245 245 248 249 251 252 253 255 256 259 264 265 262 262 268 269 273 277 278 282 284 287 288 289 294 298 294 297 293 298 304 306 306 307
219 225 224 228 231 234 239 238 237 241 242 243 245 247 249 247 249 250 254 255 255 256 260 262 262 264 265 267 271 275 275 278 282 286 289 288 290 295 293 290 291 294 301 302 303 306 309
218 219 219 221 226 230 232 239 241 241 243 245 244 245 246 247 248 250 252 252 251 254 258 260 263 265 266 267 271 274 276 278 281 280 282 282 284 285 288 294 295 297 298 301 304 307 311
218 219 219 223 225 226 227 228 233 240 242 245 244 245 247 245 246 248 251 253 255 258 262 263 264 267 269 268 270 270 273 272 276 276 279 278 283 288 290 293 295 298 301 306 307 306 305
221 222 221 222 221 224 224 225 226 230 236 240 243 248 248 248 249 248 249 253 254 259 262 262 262 259 260 260 265 270 271 275 278 280 283 287 289 291 293 293 294 300 302 303 305 304 305
221 223 225 222 223 221 224 226 230 234 233 234 240 243 248 247 247 248 251 252 255 256 253 253 257 253 255 258 266 271 274 277 279 282 286 288 290 289 290 293 299 301 303 303 304 306 309
221 222 225 226 225 224 226 226 228 231 237 238 237 240 242 244 244 247 249 251 253 253 254 258 256 257 261 265 268 272 274 276 278 282 285 285 285 288 294 298 302 305 301 305 309 308 304
221 222 224 226 227 226 225 227 226 230 235 238 239 238 241 242 244 247 247 248 249 251 254 254 256 257 261 264 266 271 272 272 274 278 280 283 285 288 292 299 304 304 303 308 309 312 307
221 221 223 226 227 227 228 228 229 230 232 236 239 240 238 238 241 240 243 244 247 249 248 249 251 255 257 260 263 264 264 267 273 279 281 285 288 290 294 297 299 302 308 309 312 313 308
221 222 222 225 227 228 229 230 230 231 233 234 236 237 238 238 236 237 240 244 245 248 248 250 251 253 255 254 260 261 260 265 273 277 283 285 289 293 295 299 301 303 309 309 313 313 305
222 222 223 223 226 228 229 230 230 230 231 234 234 236 238 241 239 240 239 240 243 244 247 249 249 249 251 251 253 256 261 263 272 278 280 285 288 293 299 301 302 304 302 305 312 310 305
221 220 222 223 226 227 230 231 231 230 232 232 235 234 236 237 239 239 240 242 244 247 248 250 251 251 251 254 255 254 256 262 268 273 279 282 287 292 297 302 305 304 305 309 306 304 300
221 220 221 224 225 227 228 230 234 233 233 233 233 234 235 235 238 239 240 243 243 246 247 250 252 253 254 255 256 258 254 257 263 268 271 278 283 287 289 291 296 301 304 303 299 297 300
221 222 223 223 225 225 230 231 231 232 233 233 233 233 234 234 236 238 240 242 242 241 245 247 249 250 251 254 255 258 257 257 260 265 267 270 276 281 284 289 293 296 303 302 292 290 294
220 223 224 224 225 224 228 230 231 233 235 236 236 235 236 237 238 240 240 241 244 244 242 246 251 253 252 252 252 255 255 256 257 262 265 270 274 277 279 283 289 291 294 300 293 295 287
219 221 223 226 226 226 228 230 232 233 235 237 237 236 238 238 239 239 242 242 244 245 244 244 247 249 250 250 250 251 254 255 257 260 267 269 270 273 278 279 286 288 294 296 298 300 296
220 219 222 225 227 229 231 231 232 233 235 236 236 237 238 238 238 241 242 243 244 246 245 245 245 248 249 250 249 253 254 256 258 260 263 266 269 271 274 278 286 289 292 297 297 297 301
218 220 222 223 225 228 229 231 232 234 234 237 237 238 238 239 239 240 242 243 243 245 246 245 247 248 250 251 250 252 251 254 257 260 262 262 265 269 272 276 283 288 290 295 293 295 297
219 220 221 223 226 228 229 230 230 232 234 235 237 237 238 240 241 241 241 244 244 244 246 246 246 248 250 251 249 250 250 249 251 257 261 264 266 271 271 275 281 282 284 287 292 294 297
223 221 221 223 225 228 229 230 230 231 233 234 235 237 238 238 239 241 242 244 244 244 245 246 247 247 248 249 250 251 252 252 251 253 257 263 266 267 271 273 276 278 283 284 286 290 293
Height
10774 10783 10795 10805 10815 10824 10832 10840 10848 10855 10861 10867 10872 10877 10882 10885 10888 10892 10894 10897 10901 10904 10908 10911 10913 10915 10915 10913 10912 10912 10910 10909 10909 10909 10908 10905 10903 10900 10898 10897 10894 10891 10889 10887 10885 10881 10876
10752 10766 10777 10786 10795 10805 10815 10824 10832 10839 10846 10852 10858 10863 10868 10872 10876 10881 10883 10886 10890 10895 10898 10900 10903 10904 10905 10906 10902 10903 10902 10901 10899 10898 10899 10897 10894 10893 10888 10888 10887 10884 10880 10877 10875 10873 10870
10734 10746 10756 10764 10773 10786 10796 10806 10816 10823 10830 10837 10843 10849 10855 10860 10865 10868 10872 10876 10880 10884 10888 10891 10893 10893 10892 10895 10895 10892 10892 10893 10891 10888 10887 10888 10884 10883 10881 10877 10877 10874 10872 10868 10864 10864 10860
10716 10725 10733 10743 10754 10766 10778 10788 10797 10805 10813 10820 10828 10834 10840 10846 10851 10855 10859 10863 10869 10870 10876 10879 10882 10882 10879 10884 10884 10882 10881 10879 10880 10879 10876 10876 10872 10871 10871 10868 10865 10867 10863 10856 10852 10853 10853
10693 10704 10714 10724 10733 10747 10759 10770 10777 10786 10795 10803 10810 10817 10825 10831 10835 10841 10846 10851 10855 10857 10863 10865 10872 10871 10868 10870 10873 10870 10871 10868 10865 10863 10866 10865 10860 10856 10860 10860 10855 10856 10849 10846 10837 10838 10835
10669 10682 10690 10703 10717 10730 10739 10750 10758 10767 10777 10785 10793 10801 10808 10814 10821 10826 10833 10836 10840 10846 10849 10852 10859 10856 10857 10857 10857 10854 10859 10858 10856 10852 10850 10855 10847 10844 10849 10850 10844 10839 10839 10830 10825 10822 10821
10653 10659 10670 10687 10698 10712 10721 10729 10736 10747 10757 10766 10775 10783 10791 10797 10804 10809 10819 10819 10824 10832 10835 10837 10842 10841 10841 10849 10847 10835 10844 10841 10843 10840 10838 10842 10837 10834 10837 10836 10831 10827 10822 10816 10811 10807 10808
10633 10642 10654 10668 10678 10693 10703 10711 10720 10729 10738 10747 10755 10764 10773 10781 10789 10795 10800 10800 10808 10818 10823 10822 10823 10833 10826 10837 10831 10819 10836 10827 10828 10825 10824 10827 10817 10822 10820 10821 10816 10815 10812 10804 10793 10786 10792
10612 10625 10636 10650 10660 10674 10683 10694 10703 10712 10720 10729 10737 10745 10755 10764 10771 10778 10779 10788 10797 10805 10810 10796 10814 10815 10811 10819 10818 10810 10817 10816 10815 10811 10815 10813 10804 10811 10810 10804 10799 10798 10798 10794 10789 10775 10764
10591 10604 10619 10631 10643 10654 10667 10677 10685 10694 10702 10710 10717 10726 10740 10747 10754 10757 10768 10775 10781 10788 10796 10789 10797 10795 10798 10805 10798 10801 10804 10802 10801 10798 10803 10796 10794 10795 10799 10790 10787 10779 10777 10776 10769 10765 10755
10570 10583 10598 10613 10626 10636 10648 10658 10669 10677 10685 10692 10699 10708 10723 10730 10736 10744 10751 10759 10768 10770 10779 10777 10778 10782 10784 10785 10785 10786 10789 10788 10787 10785 10789 10780 10780 10783 10782 10776 10779 10776 10766 10760 10755 10753 10748
10548 10562 10578 10594 10607 10621 10631 10640 10651 10660 10668 10674 10683 10694 10704 10713 10719 10727 10736 10744 10751 10755 10757 10765 10764 10764 10766 10768 10768 10770 10772 10775 10773 10775 10776 10769 10774 10771 10769 10762 10762 10760 10753 10745 10742 10738 10734
10524 10541 10558 10572 10586 10603 10615 10623 10633 10643 10650 10657 10667 10677 10685 10694 10704 10712 10722 10731 10740 10740 10743 10751 10756 10748 10747 10751 10753 10754 10757 10759 10760 10761 10759 10764 10763 10756 10754 10753 10752 10746 10738 10730 10729 10727 10723
10499 10516 10536 10550 10565 10582 10595 10608 10616 10625 10634 10642 10651 10661 10669 10677 10687 10698 10707 10718 10729 10724 10728 10733 10739 10739 10740 10742 10743 10741 10740 10743 10745 10744 10748 10751 10748 10746 10741 10740 10737 10736 10727 10721 10714 10714 10711
10475 10493 10510 10529 10543 10560 10574 10587 10599 10608 10616 10627 10636 10643 10651 10660 10670 10685 10694 10707 10714 10707 10715 10722 10726 10729 10728 10729 10730 10729 10729 10732 10730 10730 10737 10735 10733 10730 10729 10729 10726 10723 10715 10712 10704 10697 10696
10452 10473 10490 10506 10521 10537 10553 10567 10580 10592 10596 10607 10617 10627 10634 10647 10656 10670 10679 10692 10695 10691 10704 10708 10713 10713 10715 10720 10715 10715 10720 10718 10716 10719 10721 10722 10722 10718 10715 10714 10713 10711 10704 10701 10696 10690 10684
10428 10450 10467 10484 10500 10516 10531 10545 10560 10571 10579 10586 10597 10612 10621 10629 10640 10657 10668 10673 10670 10678 10689 10696 10698 10697 10701 10705 10705 10706 10707 10706 10705 10708 10707 10707 10708 10708 10706 10702 10700 10697 10695 10688 10685 10681 10677
10405 10426 10447 10462 10477 10494 10511 10526 10540 10548 10559 10571 10582 10592 10604 10608 10624 10647 10654 10657 10656 10666 10676 10677 10682 10681 10689 10692 10694 10697 10698 10697 10696 10694 10695 10693 10692 10696 10698 10691 10688 10684 10680 10676 10673 10671 10667
10382 10403 10422 10440 10457 10472 10487 10503 10517 10531 10542 10548 10559 10569 10579 10592 10618 10632 10638 10642 10647 10651 10659 10662 10667 10670 10675 10680 10683 10686 10688 10688 10686 10686 10685 10682 10680 10678 10682 10683 10678 10674 10669 10663 10664 10660 10657
10360 10381 10399 10417 10435 10450 10466 10479 10496 10508 10518 10525 10538 10552 10567 10583 10603 10614 10621 10626 10634 10637 10643 10647 10653 10657 10661 10666 10671 10677 10676 10678 10677 10676 10676 10673 10670 10668 10666 10666 10667 10661 10658 10657 10656 10653 10651
10333 10352 10372 10391 10412 10429 10442 10458 10472 10483 10493 10504 10520 10538 10551 10571 10583 10592 10598 10606 10615 10622 10626 10627 10635 10639 10648 10655 10660 10664 10667 10666 10667 10666 10667 10664 10659 10658 10655 10652 10653 10649 10644 10646 10646 10643 10643
10307 10332 10353 10374 10393 10406 10419 10433 10449 10465 10475 10487 10506 10521 10534 10548 10559 10567 10581 10594 10600 10602 10609 10612 10616 10624 10636 10639 10646 10648 10654 10653 10654 10656 10655 10653 10650 10652 10648 10648 10646 10640 10636 10637 10634 10632 10632
10288 10311 10332 10352 10369 10384 10400 10411 10423 10438 10455 10466 10481 10499 10511 10525 10539 10546 10564 10570 10576 10580 10589 10591 10597 10608 10621 10621 10630 10632 10638 10642 10644 10643 10642 10639 10641 10642 10639 10637 10636 10632 10628 10627 10625 10623 10621
10273 10292 10309 10329 10345 10362 10376 10385 10407 10422 10434 10441 10453 10476 10490 10506 10516 10528 10536 10548 10553 10563 10573 10575 10583 10593 10598 10610 10612 10617 10621 10627 10630 10628 10630 10629 10629 10630 10628 10628 10625 10621 10621 10617 10615 10616 10611
10248 10268 10287 10306 10321 10339 10351 10367 10385 10402 10410 10416 10437 10456 10472 10484 10494 10503 10514 10525 10530 10539 10554 10559 10567 10575 10578 10588 10592 10599 10603 10609 10615 10617 10619 10617 10618 10618 10616 10615 10612 10607 10610 10607 10607 10605 10601
10222 10244 10263 10280 10296 10315 10329 10350 10363 10378 10382 10395 10417 10432 10450 10461 10469 10485 10494 10505 10515 10521 10530 10542 10552 10557 10561 10569 10574 10584 10589 10595 10600 10606 10603 10602 10602 10603 10601 10605 10602 10595 10596 10595 10593 10591 10589
10196 10218 10236 10259 10280 10292 10308 10325 10340 10351 10361 10375 10394 10411 10426 10435 10447 10461 10472 10484 10494 10501 10509 10520 10533 10536 10541 10549 10559 10567 10573 10579 10584 10587 10585 10587 10587 10590 10590 10593 10592 10578 10586 10580 10579 10579 10577
10179 10201 10219 10242 10261 10273 10285 10298 10313 10326 10337 10352 10372 10386 10402 10411 10426 10440 10455 10462 10474 10481 10488 10499 10509 10519 10522 10527 10537 10546 10555 10561 10565 10570 10573 10570 10575 10577 10576 10580 10579 10566 10571 10574 10565 10564 10561
10160 10181 10203 10223 10236 10248 10262 10273 10284 10301 10316 10331 10351 10362 10377 10387 10400 10417 10430 10439 10450 10456 10462 10473 10486 10494 10500 10509 10521 10526 10535 10542 10549 10557 10559 10561 10556 10559 10565 10565 10561 10556 10555 10557 10560 10554 10550